EW8328 Weather Reports


Display with metric or nautical units.
time (UTC)temp
F
wind
direction
speed
MPH
gust
MPH
rain 1hr
in
rain 24hr
in
rain mn
in
humidity
%
barometer
mb
20260506145356 51 95 3.0 6.0 0.00 0.00 0.00 56 1014.6
20260506144357 51 92 3.0 8.0 0.00 0.00 0.00 54 1014.7
20260506143356 51 40 0.0 2.0 0.00 0.00 0.00 55 1014.6
20260506142856 51 61 1.0 3.0 0.00 0.00 0.00 56 1014.6
20260506142356 51 61 1.0 5.0 0.00 0.00 0.00 56 1014.6
20260506141856 51 113 1.0 6.0 0.00 0.00 0.00 54 1014.6
20260506141356 52 88 2.0 5.0 0.00 0.00 0.00 54 1014.7
20260506140856 52 359 2.0 8.0 0.00 0.00 0.00 55 1014.7
20260506140356 52 21 3.0 7.0 0.00 0.00 0.00 54 1014.7
20260506135856 52 59 3.0 6.0 0.00 0.00 0.00 54 1014.7
20260506135357 52 80 4.0 8.0 0.00 0.00 0.00 53 1014.7
20260506134856 51 137 2.0 5.0 0.00 0.00 0.00 51 1014.7
20260506134356 51 78 2.0 6.0 0.00 0.00 0.00 52 1014.7
20260506133356 51 84 2.0 9.0 0.00 0.00 0.00 55 1014.8
20260506132856 51 93 3.0 7.0 0.00 0.00 0.00 56 1014.8
20260506132356 51 82 2.0 5.0 0.00 0.00 0.00 56 1014.8
20260506131856 51 95 3.0 8.0 0.00 0.00 0.00 56 1014.8
20260506130357 52 74 2.0 8.0 0.00 0.00 0.00 55 1014.9
20260506125856 53 110 5.0 9.0 0.00 0.00 0.00 52 1014.8
20260506124856 52 273 1.0 6.0 0.00 0.00 0.00 52 1014.7
20260506124356 52 115 3.0 6.0 0.00 0.00 0.00 50 1014.8
20260506123856 52 89 3.0 6.0 0.00 0.00 0.00 50 1014.8
20260506123356 53 47 2.0 5.0 0.00 0.00 0.00 52 1014.8
20260506122856 53 104 2.0 6.0 0.00 0.00 0.00 50 1014.8
20260506122356 53 351 2.0 3.0 0.00 0.00 0.00 49 1014.7
20260506121856 53 26 3.0 5.0 0.00 0.00 0.00 50 1014.9
20260506121356 52 358 1.0 5.0 0.00 0.00 0.00 54 1014.9
20260506120356 52 84 3.0 6.0 0.00 0.00 0.00 53 1015.0
20260506115855 51 310 3.0 7.0 0.00 0.00 0.00 53 1015.0
20260506115356 51 16 2.0 5.0 0.00 0.00 0.00 51 1015.0
20260506114856 52 39 3.0 7.0 0.00 0.00 0.00 54 1015.0
20260506113856 52 9 2.0 7.0 0.00 0.00 0.00 53 1015.1
20260506113356 53 94 3.0 7.0 0.00 0.00 0.00 54 1015.1
20260506112355 51 87 2.0 5.0 0.00 0.00 0.00 54 1015.2
20260506111856 51 351 1.0 8.0 0.00 0.00 0.00 56 1015.2
20260506111356 51 13 5.0 9.0 0.00 0.00 0.00 59 1015.2
20260506110856 50 4 3.0 9.0 0.00 0.00 0.00 58 1015.2
20260506110356 50 350 1.0 5.0 0.00 0.00 0.00 60 1015.2
20260506105856 50 30 1.0 5.0 0.00 0.00 0.00 59 1015.2
20260506105355 50 65 2.0 5.0 0.00 0.00 0.00 60 1015.2
20260506104856 50 350 2.0 6.0 0.00 0.00 0.00 58 1015.2
20260506104356 51 345 2.0 12.0 0.00 0.00 0.00 59 1015.3
20260506103856 52 92 3.0 7.0 0.00 0.00 0.00 57 1015.4
20260506103357 51 74 3.0 9.0 0.00 0.00 0.00 61 1015.3
20260506102856 51 80 5.0 9.0 0.00 0.00 0.00 62 1015.3
20260506102357 50 5 3.0 10.0 0.00 0.00 0.00 62 1015.3
20260506101856 51 356 3.0 8.0 0.00 0.00 0.00 60 1015.3
20260506101356 51 25 2.0 7.0 0.00 0.00 0.00 63 1015.3
20260506100855 50 93 4.0 7.0 0.00 0.00 0.00 63 1015.3
20260506095856 50 100 2.0 8.0 0.00 0.00 0.00 64 1015.3
20260506095355 49 79 3.0 7.0 0.00 0.00 0.00 64 1015.3
20260506094857 50 20 3.0 7.0 0.00 0.00 0.00 64 1015.4
20260506093855 49 113 4.0 10.0 0.00 0.00 0.00 63 1015.4
20260506093355 49 41 2.0 5.0 0.00 0.00 0.00 66 1015.4
20260506092856 48 229 1.0 3.0 0.00 0.00 0.00 67 1015.4
20260506091357 48 103 3.0 9.0 0.00 0.00 0.00 66 1015.5
20260506090856 47 81 2.0 7.0 0.00 0.00 0.00 71 1015.5
20260506090356 46 78 2.0 8.0 0.00 0.00 0.00 71 1015.5
20260506085857 46 17 4.0 10.0 0.00 0.00 0.00 72 1015.5
20260506085356 46 12 3.0 8.0 0.00 0.00 0.00 71 1015.5
20260506084856 46 27 3.0 8.0 0.00 0.00 0.00 72 1015.5
20260506084356 46 12 2.0 8.0 0.00 0.00 0.00 73 1015.5
20260506083355 46 46 2.0 7.0 0.00 0.00 0.00 71 1015.5
20260506082856 45 40 2.0 8.0 0.00 0.00 0.00 73 1015.5
20260506082356 45 58 3.0 8.0 0.00 0.00 0.00 73 1015.6
20260506081856 44 23 3.0 7.0 0.00 0.00 0.00 74 1015.6
20260506081356 44 2 2.0 7.0 0.00 0.00 0.00 74 1015.6
20260506080857 44 39 3.0 10.0 0.00 0.00 0.00 74 1015.6
20260506080356 44 30 3.0 10.0 0.00 0.00 0.00 75 1015.5
20260506073355 43 20 2.0 8.0 0.00 0.00 0.00 75 1015.4
20260506072355 43 94 2.0 8.0 0.00 0.00 0.00 76 1015.4
20260506071856 43 102 2.0 6.0 0.00 0.00 0.00 76 1015.4
20260506071356 43 65 3.0 8.0 0.00 0.00 0.00 76 1015.4
20260506070856 43 14 3.0 7.0 0.00 0.00 0.00 77 1015.4
20260506070356 42 64 1.0 5.0 0.00 0.00 0.00 78 1015.4
20260506062356 39 173 0.0 1.0 0.00 0.00 0.00 81 1015.2
20260506061856 39 173 0.0 2.0 0.00 0.00 0.00 81 1015.1
20260506061356 39 173 1.0 3.0 0.00 0.00 0.00 82 1015.1
20260506060856 38 138 1.0 2.0 0.00 0.00 0.00 82 1015.1
20260506060355 38 161 1.0 3.0 0.00 0.00 0.00 82 1015.0
20260506051355 37 34 1.0 3.0 0.00 0.00 0.00 84 1015.1
20260506050355 36 14 1.0 3.0 0.00 0.00 0.00 85 1015.1
20260506044356 36 336 0.0 2.0 0.00 0.00 0.00 83 1015.1
20260506043855 36 336 0.0 2.0 0.00 0.00 0.00 83 1015.1
20260506043356 36 289 1.0 2.0 0.00 0.00 0.00 83 1015.1
20260506042355 36 263 0.0 2.0 0.00 0.00 0.00 84 1015.1
20260506041856 36 265 0.0 2.0 0.00 0.00 0.00 84 1015.0
20260506040855 36 265 0.0 1.0 0.00 0.00 0.00 84 1015.1
20260506040355 35 265 0.0 2.0 0.00 0.00 0.00 84 1015.1
20260506035856 35 265 0.0 2.0 0.00 0.00 0.00 84 1015.1
20260506035355 35 265 0.0 2.0 0.00 0.00 0.00 84 1015.1
20260506034856 36 265 0.0 1.0 0.00 0.00 0.00 84 1015.1
20260506034355 36 265 0.0 2.0 0.00 0.00 0.00 84 1015.0
20260506033855 36 265 0.0 2.0 0.00 0.00 0.00 85 1015.1
20260506033355 36 270 1.0 3.0 0.00 0.00 0.00 84 1015.1
20260506032856 36 328 0.0 1.0 0.00 0.00 0.00 84 1015.2
20260506031856 36 328 0.0 1.0 0.00 0.00 0.00 84 1015.3
20260506031355 37 328 0.0 2.0 0.00 0.00 0.00 84 1015.3
20260506030856 37 328 0.0 2.0 0.00 0.00 0.00 84 1015.3
20260506030355 37 328 0.0 2.0 0.00 0.00 0.00 85 1015.3
20260506025857 37 328 0.0 2.0 0.00 0.00 0.00 85 1015.3
20260506025356 37 328 0.0 1.0 0.00 0.00 0.00 85 1015.3
20260506024356 37 328 0.0 2.0 0.00 0.00 0.00 85 1015.3
20260506023855 37 328 0.0 0.0 0.00 0.00 0.00 85 1015.3
20260506022856 37 328 0.0 2.0 0.00 0.00 0.00 85 1015.3
20260506022355 37 328 0.0 2.0 0.00 0.00 0.00 85 1015.3
20260506021856 38 328 0.0 3.0 0.00 0.00 0.00 85 1015.3
20260506021355 38 328 0.0 2.0 0.00 0.00 0.00 85 1015.3
20260506020855 38 328 0.0 2.0 0.00 0.00 0.00 86 1015.3
20260506020356 39 328 1.0 2.0 0.00 0.00 0.00 84 1015.2
20260506015855 39 328 1.0 2.0 0.00 0.00 0.00 85 1015.3
20260506015355 39 328 0.0 2.0 0.00 0.00 0.00 85 1015.3
20260506014855 39 2 1.0 3.0 0.00 0.00 0.00 85 1015.4
20260506014355 39 81 1.0 2.0 0.00 0.00 0.00 85 1015.4
20260506013855 39 81 1.0 2.0 0.00 0.00 0.00 85 1015.4
20260506013355 39 81 1.0 3.0 0.00 0.00 0.00 84 1015.4
20260506012856 40 81 0.0 2.0 0.00 0.00 0.00 84 1015.4
20260506012355 40 81 2.0 3.0 0.00 0.00 0.00 84 1015.6
20260506011855 40 81 0.0 2.0 0.00 0.00 0.00 84 1015.5
20260506011355 40 81 0.0 0.0 0.00 0.00 0.00 83 1015.6
20260506010355 41 81 0.0 1.0 0.00 0.00 0.00 83 1015.6
20260506005856 41 81 0.0 1.0 0.00 0.00 0.00 83 1015.5
20260506005355 42 81 0.0 2.0 0.00 0.00 0.00 83 1015.5
20260506004354 42 81 1.0 5.0 0.00 0.00 0.00 83 1015.6
20260506003856 42 81 0.0 2.0 0.00 0.00 0.00 82 1015.6
20260506003356 42 81 2.0 3.0 0.00 0.00 0.00 82 1015.6
20260506002856 42 81 0.0 3.0 0.00 0.00 0.00 83 1015.6
20260506001855 43 81 1.0 2.0 0.00 0.00 0.00 83 1015.6
20260506001355 43 81 1.0 2.0 0.00 0.00 0.00 83 1015.6
20260506000855 43 81 2.0 16.0 0.00 0.00 0.00 82 1015.5
20260506000355 43 81 1.0 3.0 0.00 0.00 0.00 82 1015.6
20260505235355 43 81 1.0 3.0 0.00 0.00 0.00 82 1015.6
20260505234355 43 81 1.0 2.0 0.00 0.00 0.00 81 1015.7
20260505233855 43 81 1.0 3.0 0.00 0.00 0.00 81 1015.6
20260505233355 43 81 1.0 3.0 0.00 0.00 0.00 81 1015.5
20260505232855 43 81 2.0 7.0 0.00 0.00 0.00 80 1015.4
20260505232356 43 75 2.0 7.0 0.00 0.00 0.00 80 1015.5
20260505231855 43 12 2.0 8.0 0.00 0.00 0.00 80 1015.5
20260505231355 43 84 5.0 12.0 0.00 0.00 0.00 80 1015.5
20260505230935 43 328 2.0 9.0 0.00 0.00 0.00 80 1015.5
20260505230356 43 52 3.0 10.0 0.00 0.00 0.00 79 1015.5
20260505225856 43 88 2.0 9.0 0.00 0.00 0.00 79 1015.4
20260505225355 43 233 2.0 12.0 0.00 0.00 0.00 79 1015.4
20260505224855 43 111 2.0 7.0 0.00 0.00 0.00 79 1015.5
20260505224355 43 78 1.0 7.0 0.00 0.00 0.00 79 1015.5
20260505223856 43 16 2.0 6.0 0.00 0.00 0.00 79 1015.4
20260505223355 43 88 2.0 5.0 0.00 0.00 0.00 79 1015.5
20260505222855 43 187 1.0 8.0 0.00 0.00 0.00 79 1015.6
20260505221355 44 2 3.0 12.0 0.00 0.00 0.00 80 1015.5
20260505220355 44 56 3.0 12.0 0.00 0.00 0.00 79 1015.4
20260505215855 44 48 2.0 15.0 0.00 0.00 0.00 79 1015.4
20260505215355 44 12 3.0 9.0 0.00 0.00 0.00 80 1015.5
20260505214855 44 53 3.0 8.0 0.00 0.00 0.00 80 1015.4
20260505214355 44 66 2.0 7.0 0.00 0.00 0.00 80 1015.5
20260505213855 44 19 2.0 7.0 0.00 0.00 0.00 80 1015.5
20260505213355 44 20 3.0 10.0 0.00 0.00 0.00 79 1015.4
20260505212856 44 31 2.0 10.0 0.00 0.00 0.00 79 1015.4
20260505212355 44 24 5.0 10.0 0.00 0.00 0.00 79 1015.4
20260505211855 44 344 5.0 7.0 0.00 0.00 0.00 80 1015.3
20260505211355 44 355 3.0 9.0 0.00 0.00 0.00 80 1015.3
20260505210855 44 349 3.0 9.0 0.00 0.00 0.00 80 1015.3
20260505210355 44 17 4.0 12.0 0.00 0.00 0.00 80 1015.3
20260505205855 44 5 6.0 10.0 0.00 0.00 0.00 80 1015.3
20260505205355 44 51 5.0 8.0 0.00 0.00 0.00 80 1015.3
20260505204355 44 27 5.0 9.0 0.00 0.00 0.00 79 1015.2
20260505203855 44 359 3.0 7.0 0.00 0.00 0.00 79 1015.3
20260505202355 44 7 3.0 9.0 0.00 0.00 0.00 79 1015.2
20260505201856 45 26 4.0 9.0 0.00 0.00 0.00 79 1015.2
20260505201356 45 355 3.0 10.0 0.00 0.00 0.00 79 1015.1
20260505200855 45 15 6.0 12.0 0.00 0.00 0.00 79 1015.1
20260505200355 45 13 6.0 13.0 0.00 0.00 0.00 79 1015.1
20260505195356 45 351 4.0 9.0 0.00 0.00 0.00 78 1015.0
20260505194855 45 353 4.0 13.0 0.00 0.00 0.00 78 1015.0
20260505194355 45 12 4.0 8.0 0.00 0.00 0.00 78 1014.9
20260505193355 45 8 3.0 8.0 0.00 0.00 0.00 77 1014.9
20260505192355 45 27 5.0 15.0 0.00 0.00 0.00 78 1014.7
20260505191856 45 6 4.0 12.0 0.00 0.00 0.00 77 1014.7
20260505191355 45 15 5.0 12.0 0.00 0.00 0.00 78 1014.6
20260505190855 45 12 5.0 10.0 0.00 0.00 0.00 78 1014.7
20260505190355 45 359 5.0 12.0 0.00 0.00 0.00 78 1014.7
20260505185855 45 8 4.0 12.0 0.00 0.00 0.00 77 1014.6
20260505185355 46 26 6.0 13.0 0.00 0.00 0.00 77 1014.6
20260505183855 46 34 6.0 12.0 0.00 0.00 0.00 76 1014.5
20260505183355 46 15 6.0 12.0 0.00 0.00 0.00 76 1014.5
20260505182855 46 34 5.0 15.0 0.00 0.00 0.00 75 1014.4
20260505181354 47 20 5.0 13.0 0.00 0.00 0.00 77 1014.4
20260505180856 47 17 5.0 9.0 0.00 0.00 0.00 77 1014.3
20260505180355 47 21 4.0 8.0 0.00 0.00 0.00 77 1014.3
20260505175855 47 353 5.0 12.0 0.00 0.00 0.00 77 1014.3
20260505175355 47 17 5.0 12.0 0.00 0.00 0.00 77 1014.2
20260505174354 47 10 4.0 14.0 0.00 0.00 0.00 77 1014.2
20260505173855 48 358 5.0 12.0 0.00 0.00 0.00 77 1014.3
20260505173355 48 8 6.0 12.0 0.00 0.00 0.00 76 1014.2
20260505172855 48 0 5.0 10.0 0.00 0.00 0.00 76 1014.2
20260505172355 48 5 3.0 10.0 0.00 0.00 0.00 76 1014.3
20260505171855 48 26 3.0 10.0 0.00 0.00 0.00 76 1014.3
20260505171354 49 4 3.0 10.0 0.00 0.00 0.00 75 1014.2
20260505170854 49 7 6.0 12.0 0.00 0.00 0.00 74 1014.3
20260505170355 49 5 7.0 14.0 0.00 0.00 0.00 74 1014.3
20260505165856 49 358 4.0 9.0 0.00 0.00 0.00 74 1014.3
20260505163854 50 38 3.0 10.0 0.00 0.00 0.00 74 1014.2
20260505163355 50 27 3.0 9.0 0.00 0.00 0.00 75 1014.2
20260505162855 50 9 3.0 7.0 0.00 0.00 0.00 74 1014.2
20260505162354 50 1 5.0 12.0 0.00 0.00 0.00 74 1014.2
20260505161354 50 18 5.0 9.0 0.00 0.00 0.00 74 1014.1
20260505160855 50 5 3.0 6.0 0.00 0.00 0.00 74 1014.1
20260505160355 50 29 3.0 8.0 0.00 0.00 0.00 74 1014.1
20260505152855 50 18 2.0 8.0 0.00 0.00 0.00 75 1014.0
20260505152355 50 19 4.0 10.0 0.00 0.00 0.00 74 1014.0
20260505151855 51 23 3.0 6.0 0.00 0.00 0.00 75 1014.0
20260505151357 51 350 3.0 8.0 0.00 0.00 0.00 75 1014.0
20260505150855 51 24 1.0 8.0 0.00 0.00 0.00 76 1013.9
20260505150355 51 26 2.0 5.0 0.00 0.00 0.00 76 1013.9